Ardmore, OK

8:54 PM CST on February 19, 2018 (GMT -0600)
Ardmore Municipal

Weather History for KADM - February, 2015

Change the Weather History Date:

Monday, February 23, 2015

  Actual Average Record
Temperature  
Mean Temperature 24 °F -  
Max Temperature 26 °F 55 °F 86 °F (2017)
Min Temperature 23 °F 37 °F 23 °F (2015)
Degree Days  
Heating Degree Days 40    
Moisture  
Dew Point 20 °F    
Average Humidity 81    
Maximum Humidity 89    
Minimum Humidity 69    
Precipitation  
Precipitation 0.01 in - - ()
Sea Level Pressure  
Sea Level Pressure 30.54 in    
Wind  
Wind Speed 12 mph (NNE)    
Max Wind Speed 22 mph    
Max Gust Speed 26 mph    
Visibility 10 miles    
Events Snow    
Averages and records for this station are not official NWS values.
T = Trace of Precipitation, MM = Missing Value Source: NWS Daily Summary

Daily Weather History Graph

Daily Weather History Graph

Search for Another Location

Airport or City:

Trip Planner

Search our weather history database for the weather conditions in past years. The results will help you decide how hot, cold, wet, or windy it might be!

Date:

Astronomy

Feb. 23, 2015 Rise Set
Actual Time 7:04 AM CST 6:18 PM CST
Civil Twilight 6:39 AM CST 6:44 PM CST
Nautical Twilight 6:09 AM CST 7:13 PM CST
Astronomical Twilight 5:40 AM CST 7:42 PM CST
Moon 10:11 AM CST (2/23) 11:52 PM CST (2/23)
Length of Visible Light 12h 05m
Length of Day
11h 14m
Waxing Crescent, 29% of the Moon is Illuminated
Feb 23
Waxing Crescent
Feb 25
First Quarter
Mar 5
Full
Mar 13
Last Quarter
Mar 20
New

Hourly Weather History & Observations

Time (CST) Temp. Windchill Dew Point Humidity Pressure Visibility Wind Dir Wind Speed Gust Speed Precip Events Conditions
12:15 AM 26.4 °F 16.6 °F 22.8 °F 86% 30.57 in 10.0 mi North 10.4 mph - N/A   Overcast
12:35 AM 26.4 °F 14.0 °F 22.1 °F 84% 30.55 in 10.0 mi NNE 16.1 mph 21.9 mph N/A   Overcast
12:55 AM 26.2 °F 16.4 °F 22.5 °F 86% 30.55 in 10.0 mi North 10.4 mph 16.1 mph 0.01 in   Overcast
1:15 AM 26.2 °F 16.4 °F 22.6 °F 86% 30.56 in 10.0 mi NNE 10.4 mph - N/A   Overcast
1:35 AM 26.1 °F 15.0 °F 22.1 °F 85% 30.56 in 10.0 mi NNE 12.7 mph 21.9 mph N/A   Overcast
1:55 AM 25.7 °F 13.5 °F 21.2 °F 83% 30.55 in 10.0 mi NNE 15.0 mph 21.9 mph N/A   Overcast
2:15 AM 25.7 °F 13.5 °F 20.7 °F 81% 30.56 in 10.0 mi NNE 15.0 mph 23.0 mph N/A   Overcast
2:35 AM 25.7 °F 14.0 °F 20.3 °F 80% 30.55 in 10.0 mi NNE 13.8 mph - N/A   Overcast
2:55 AM 25.7 °F 11.9 °F 19.8 °F 78% 30.55 in 10.0 mi NNE 19.6 mph - N/A   Overcast
3:15 AM 25.5 °F 12.9 °F 19.4 °F 78% 30.58 in 10.0 mi NNE 16.1 mph 20.7 mph N/A   Overcast
3:35 AM 25.5 °F 13.8 °F 19.6 °F 78% 30.58 in 10.0 mi North 13.8 mph - N/A   Overcast
3:55 AM 25.3 °F 14.1 °F 19.2 °F 78% 30.58 in 10.0 mi NNE 12.7 mph 20.7 mph N/A   Overcast
4:15 AM 25.3 °F 13.6 °F 18.5 °F 75% 30.57 in 10.0 mi NNE 13.8 mph 20.7 mph N/A   Overcast
4:35 AM 25.3 °F 13.6 °F 18.1 °F 74% 30.57 in 10.0 mi NNE 13.8 mph - N/A   Overcast
4:55 AM 25.3 °F 14.1 °F 17.6 °F 72% 30.57 in 10.0 mi NE 12.7 mph 20.7 mph N/A   Overcast
5:15 AM 25.3 °F 13.6 °F 17.6 °F 72% 30.58 in 10.0 mi NNE 13.8 mph - N/A   Overcast
5:35 AM 25.5 °F 12.4 °F 16.5 °F 69% 30.57 in 10.0 mi NNE 17.3 mph 23.0 mph N/A   Overcast
6:55 AM 24.8 °F 12.4 °F 17.6 °F 74% 30.58 in 10.0 mi North 15.0 mph 26.5 mph N/A Snow Light Snow
7:55 AM 24.8 °F 11.5 °F 19.4 °F 80% 30.59 in 7.0 mi North 17.3 mph 26.5 mph N/A Snow Light Snow
8:55 AM 23.0 °F 12.4 °F 19.4 °F 86% 30.64 in 1.5 mi North 10.4 mph - N/A Snow Light Snow
9:55 AM 24.8 °F 10.0 °F 19.4 °F 80% 30.63 in 10.0 mi NNE 21.9 mph - N/A Snow Light Snow
10:55 AM 24.8 °F 12.4 °F 17.6 °F 74% 30.63 in - NNE 15.0 mph 21.9 mph N/A   Overcast
11:55 AM 24.8 °F 12.9 °F 19.4 °F 80% 30.60 in - NNE 13.8 mph - N/A   Overcast
12:55 PM 24.8 °F 12.9 °F 19.4 °F 80% 30.57 in 5.0 mi NNE 13.8 mph - N/A   Overcast
1:55 PM 24.8 °F 15.3 °F 19.4 °F 80% 30.56 in 10.0 mi North 9.2 mph - N/A   Overcast
2:55 PM 24.8 °F 15.3 °F 19.4 °F 80% 30.54 in 10.0 mi NNE 9.2 mph - N/A   Overcast
3:55 PM 24.8 °F 15.3 °F 21.2 °F 86% 30.52 in 10.0 mi NNE 9.2 mph - N/A   Overcast
9:15 PM 23.9 °F 15.8 °F 19.6 °F 84% 30.46 in 10.0 mi NNE 6.9 mph - N/A   Overcast
9:35 PM 23.9 °F 15.0 °F 19.8 °F 84% 30.46 in 10.0 mi NNE 8.1 mph - N/A   Overcast
9:55 PM 23.7 °F 15.6 °F 20.1 °F 86% 30.46 in 10.0 mi NNE 6.9 mph - N/A   Overcast
10:15 PM 23.4 °F 15.2 °F 20.3 °F 88% 30.45 in 10.0 mi NNE 6.9 mph - N/A   Overcast
10:35 PM 23.2 °F 16.0 °F 20.3 °F 89% 30.45 in 10.0 mi NNE 5.8 mph - N/A   Overcast
10:55 PM 23.4 °F 17.4 °F 20.3 °F 88% 30.44 in 10.0 mi NNE 4.6 mph - N/A   Overcast
11:15 PM 23.4 °F 18.9 °F 20.3 °F 88% 30.43 in 10.0 mi North 3.5 mph - N/A   Overcast
11:35 PM 23.5 °F 17.6 °F 19.9 °F 86% 30.43 in 10.0 mi North 4.6 mph - N/A   Overcast
11:55 PM 23.5 °F 19.1 °F 20.1 °F 87% 30.42 in 10.0 mi NNE 3.5 mph - N/A   Overcast